User: anonymous   Login
Location: Starry Hill Observatory
(46.8582°N, 122.3590°W)
Time: 07:16:26
(UTC-07:00)
Language:

Cosmos 1300 Rocket - Orbit

View from above orbital plane
View from above orbital plane
View from above satellite
View from above satellite

Ground track
Ground track

The orbit data is extracted from the following two-line orbital elements,

1 12786U 81082B   16125.70466365  .00000181  00000-0  18494-4 0  9995
2 12786  82.4893 352.6790 0018133 158.6432 201.5544 14.84612055874205
Epoch (UTC): 04 May 2016 16:54:42
Eccentricity: 0.0018133
inclination: 82.4893°
perigee height: 602 km
apogee height: 627 km
right ascension of ascending node: 352.6790°
argument of perigee: 158.6432°
revolutions per day: 14.84612055
mean anomaly at epoch: 201.5544°
orbit number at epoch: 87420

The dashed part of the orbit path shows where the satellite is in the earth's shadow,  

DLR